SL-8 DEB, 1335

Orbit data source: Space-Track

SL-8 DEB, 1335 is space debris in LEO originally from a launch on Mon, 15 Mar 1965 UTC launched from the Tyuratam Missile And Space Complex (TTMTR). Debris objects in space refer to the collection of defunct objects orbiting the Earth. Examples of debris include non-operational satellites, rocket bodies, and fragments generated from explosions, collisions, or faulty payload assembly.

Loading next visibility...
Identifier
1335, 1965-020E
Orbit
LEO
Country
Flag of CISCIS
Related business
Manufacturer
Unknown
Mission
Spacecraft
Bus & Motor
Unknown
Mass
Unknown
Launch date (UTC)
1965-03-15 (61 years ago)
Launch vehicle
Unknown
Launch site
Tyuratam Missile And Space Complex (TTMTR)
Object type
Payload
Rocket body
Debris
Shape & HBR
Unknown
Radar Cross Section
Medium (>0.1 m² and <1 m²)

Expand to show TLE details & history
Last TLE update: 12 hours ago

TLE from 12 hours ago
0 SL-8 DEB
1 01335U 65020E   25259.50912606  .00002946  00000-0  86686-3 0  9995
2 01335  56.0725 189.7305 0532627  34.4189 329.0103 13.86232618972013
Epoch: 2025-09-16T12:13Z
TLE epoch observation values (Epoch: 2025-09-16T12:13:08.491Z)
Latitude
-0.00005°
Longitude
10.74668°
Altitude
614.654 km
Speed
7.72 km/s
True Right ascension
12h 38m 55s
True Declination
0° 00' 00"
Sunlit
Object was in daylight at epoch
Visualization orbit readout
Latitude
Unknown
Longitude
Unknown
Altitude
Unknown
Speed
Unknown
Apparent Right ascension
Unknown
Apparent Declination
Unknown
Sunlit
N/A
Visualization observer readout
Local Sidereal Time
16:45:59
Azimuth
Unknown
Elevation
Unknown
Doppler factor
Unknown
Orbital elements
Apogee altitude
1,331.543 km
Perigee altitude
551.797 km
Semi-major axis
7,319.807 km
Eccentricity
0.05326
Inclination
56.0725°
RAAN
189.7305°
Arg. of periapsis
34.4189°
True anomaly
325.6799°
Mean anomaly
329.0103°
Eccentric anomaly
327.36453°
Mean motion
3.46572 °/min
Orbital period
103.87 mins
BSTAR
0.00086686
Loading maneuver chart data...
Computing Atmospheric mass density...
Loading historical data...
Loading historical data...
Loading historical data...
Loading historical data...
Loading historical data...
Loading historical data...
Loading historical data...

Documentation

Showing up to 5 results
|